Lid_Strength_Index
5 5 5 4 4 3 3 3 2 2 2 2 2 1 1 1 1 1 1 1 2 1 1 1 0 0 0 0 0 0 0 0 1
6 5 5 4 3 3 3 3 2 2 2 2 2 1 1 1 1 1 1 1 1 1 2 1 0 0 0 0 0 0 0 1 1
6 5 5 5 4 3 3 2 2 2 2 2 2 1 1 1 1 1 1 1 1 1 1 1 0 0 0 0 0 0 0 1 1
6 6 5 5 4 4 3 2 2 2 2 2 2 1 1 1 1 1 1 1 1 1 1 0 1 0 0 0 0 0 1 1 1
5 5 5 5 4 4 3 3 2 2 2 2 2 1 1 1 1 1 1 2 1 1 1 1 1 0 1 1 1 0 1 1 1
6 5 5 5 4 4 4 3 2 2 2 2 2 1 2 2 1 1 1 1 2 1 1 1 1 1 1 1 1 1 1 1 1
7 6 5 5 5 4 4 4 3 2 2 2 2 2 2 2 2 1 1 1 1 1 1 1 1 1 1 1 1 1 1 1 1
7 6 5 5 5 4 4 4 5 4 2 2 2 2 2 2 1 1 1 1 1 1 1 1 1 1 1 1 1 0 1 1 1
7 7 5 5 4 5 4 4 4 5 5 2 2 2 2 2 2 1 1 1 1 2 1 1 1 1 1 1 1 3 3 1 1
8 8 7 5 4 4 4 4 4 3 5 2 2 2 2 2 2 2 2 1 1 1 2 1 1 1 1 1 1 5 5 4 1
9 5 5 4 4 4 3 3 2 2 2 2 2 2 2 2 2 2 2 2 2 2 1 2 1 1 1 1 1 5 6 5 2
6 5 4 4 3 3 3 3 3 3 3 2 3 3 2 2 2 2 2 2 2 2 2 2 1 1 1 1 1 6 7 7 4
7 7 7 3 3 3 3 4 2 3 3 3 3 2 2 2 2 2 2 2 2 1 1 2 1 1 1 2 1 6 8 7 2
4 4 3 3 4 3 5 5 4 3 3 3 2 2 2 2 2 2 2 2 1 1 2 2 2 2 1 1 1 1 8 10 2
4 4 4 3 4 3 3 4 4 4 5 5 4 2 2 2 2 2 2 2 2 2 2 2 2 2 2 1 1 5 8 10 9
4 4 4 4 4 4 3 3 3 5 6 7 6 5 2 2 2 2 2 2 2 2 2 2 3 3 3 2 1 1 8 10 11
4 5 4 4 5 5 4 4 3 5 6 6 7 5 3 2 2 2 2 2 2 2 2 3 3 3 3 2 2 2 1 4 7
4 4 4 4 5 5 4 4 4 5 6 7 7 7 3 2 2 2 2 2 2 2 2 2 2 2 2 3 3 2 4 3 3
4 4 4 4 5 6 5 5 6 5 6 8 8 9 4 3 3 2 2 2 3 13 9 11 11 10 4 2 9 9 10 12 11
4 4 4 3 4 6 6 6 6 7 7 7 8 9 10 6 7 3 3 3 3 4 7 14 16 15 11 12 8 15 14 14 14